Regional Weather Roundup
Issued by NWS

Home | Current Version | Previous Version | Text Only | Print | Product List | Glossary Off
Versions: 1 2 3 4 5 6 7 8 9 10 11 12 13 14 15 16 17 18 19 20 21 22 23 24 25 26 27 28 29 30 31 32 33 34 35 36 37 38 39 40 41 42 43 44 45 46 47 48 49 50

000
ASUS43 KBIS 270902
RWRND

NORTH DAKOTA REGIONAL WEATHER ROUNDUP
NATIONAL WEATHER SERVICE BISMARCK ND
400 AM CDT MON MAR 27 2017

NOTE: "FAIR" INDICATES FEW OR NO CLOUDS BELOW 12,000 FEET WITH NO
SIGNIFICANT WEATHER AND/OR OBSTRUCTIONS TO VISIBILITY.


NDZ001>003-009>011-017-271000-
NORTHWEST NORTH DAKOTA

CITY           SKY/WX    TMP DP  RH WIND       PRES   REMARKS
WILLISTON      CLOUDY    34  30  85 CALM      29.88S
MINOT          FAIR      34  31  88 W3        29.87F
MINOT AFB      CLEAR     29  29  96 CALM      29.87S
$$

NDZ018>021-031>035-040>046-271000-
SOUTHWEST NORTH DAKOTA

CITY           SKY/WX    TMP DP  RH WIND       PRES   REMARKS
BISMARCK       FAIR      32  30  92 E5        29.91F
DICKINSON      FAIR      38  31  76 W5        29.85F
GARRISON         N/A     38  32  79 CALM      29.88S
HETTINGER ARPT CLOUDY    33  30  88 CALM      29.90F
$$

NDZ004>008-012>016-024-026-027-054-271000-
NORTHEAST NORTH DAKOTA

CITY           SKY/WX    TMP DP  RH WIND       PRES   REMARKS
GRAND FORKS    FOG       39  39 100 CALM      29.96S VSB 3/4
GRND FRKS AFB  FOG       36  36 100 CALM      29.96S VSB 3/4
DEVILS LAKE    FOG       31  31 100 SE3       29.93F VSB 1/4
$$

NDZ022-023-025-028>030-036>039-047>053-271000-
SOUTHEAST NORTH DAKOTA

CITY           SKY/WX    TMP DP  RH WIND       PRES   REMARKS
FARGO          CLOUDY    33  32  96 CALM      29.95F FOG
JAMESTOWN      FOG       30  29  96 CALM      29.91F VSB 1/2
$$




USA.gov is the U.S. government's official web portal to all federal, state and local government web resources and services.